Vorticity
8 7 7 7 6 6 6 6 6 6 6 6 6 6 7 7 8 8 7 7 7 7 7 7 7 8 8 9 10 11 10 9 7 5 4 4 4 5 7 9 10 7 3 1 1 3 3 3 2 3 3 3 4 4 4 5 5 3 4 3 3 7 4 4 5 3 7 6 5 6 3 3 3 6 7 5 5 5 5 3 4 9 7 7 8 4 5 7
8 7 7 7 6 6 5 5 5 5 5 6 6 6 6 7 7 8 8 8 7 7 7 7 6 7 8 8 9 10 11 11 9 7 5 5 4 4 4 4 8 10 9 5 2 1 2 3 3 3 3 3 3 4 5 4 5 4 2 4 2 4 5 8 9 7 12 8 4 7 5 5 6 5 4 3 5 7 6 3 3 8 9 9 8 5 5 6
8 7 6 6 5 5 4 4 5 5 5 5 6 6 7 7 7 7 8 8 8 8 7 7 7 6 7 7 8 8 9 11 12 10 7 7 5 5 4 3 4 6 9 10 7 2 1 3 2 3 2 2 3 3 5 5 3 2 3 5 4 4 4 8 9 11 18 8 4 10 7 10 11 6 5 4 6 8 5 2 5 7 9 10 7 6 5 5
5 5 5 6 5 6 6 5 6 6 6 6 7 7 7 7 7 8 7 7 8 8 8 7 7 6 7 7 7 8 7 11 12 9 10 9 7 6 5 4 4 3 5 9 11 7 2 1 2 2 1 1 3 3 5 5 4 4 5 5 6 6 3 7 5 11 27 16 11 12 5 14 13 8 8 5 7 6 4 3 6 7 8 8 6 8 5 3
4 5 5 6 6 7 7 7 8 7 8 8 8 7 7 7 7 7 7 8 7 7 8 8 8 6 7 6 6 7 6 12 13 9 13 13 8 8 6 5 5 4 3 5 8 9 6 3 1 1 1 0 1 2 4 5 5 5 5 4 3 3 4 9 7 18 32 15 10 11 4 17 15 8 8 5 6 3 5 7 4 9 9 7 8 8 5 2
6 6 6 6 6 7 8 8 8 8 9 8 9 8 9 9 8 8 8 8 8 8 8 7 9 7 7 7 6 6 3 11 14 6 12 14 10 9 7 6 6 5 5 4 5 7 8 6 3 3 1 0 1 1 3 4 5 4 4 4 2 2 2 6 13 23 28 13 13 15 7 16 13 7 9 6 7 4 8 8 3 10 9 7 9 7 5 4
7 6 7 7 6 7 8 8 8 9 9 8 9 8 8 9 8 9 8 9 8 8 9 8 9 8 9 8 7 6 3 11 15 5 5 10 11 10 8 6 6 5 6 5 5 5 6 8 7 5 3 2 1 1 2 0 3 6 5 4 4 4 0 5 19 23 29 28 19 15 12 13 8 4 8 7 6 7 8 7 5 8 8 8 9 6 5 4
7 8 7 7 7 7 7 8 9 9 9 9 9 8 9 9 8 9 8 8 8 8 8 8 9 8 8 7 7 6 4 11 15 8 4 6 7 8 10 9 7 5 6 5 6 6 5 7 7 7 7 6 5 4 5 1 1 6 3 3 5 7 6 8 19 17 25 36 26 22 17 8 6 4 5 7 5 7 8 7 6 6 6 9 10 8 4 3
8 8 8 8 7 7 7 8 8 8 9 9 9 9 9 9 9 9 9 9 9 9 8 8 9 8 8 7 6 6 6 11 13 10 8 7 6 6 6 8 9 7 6 6 6 7 6 7 6 7 8 7 9 11 10 5 2 2 2 9 9 9 13 7 12 14 11 25 25 21 13 1 6 9 8 6 3 8 10 7 6 7 6 7 11 8 4 5
8 8 8 7 7 7 7 7 8 8 9 9 9 10 10 10 10 9 10 10 10 10 10 10 10 9 10 7 6 8 8 11 14 11 8 8 8 7 5 5 8 8 6 5 5 6 6 6 5 6 9 7 9 9 9 10 6 4 2 12 11 5 14 8 7 10 0 9 13 6 8 7 7 10 10 4 3 9 8 7 7 7 6 6 9 6 4 7
8 8 8 8 7 7 6 7 7 8 9 10 10 9 9 9 9 10 10 10 10 11 11 11 11 11 11 8 9 11 7 8 13 10 7 8 8 7 8 5 4 7 8 6 5 6 6 7 5 4 7 8 9 8 10 10 6 9 5 8 8 2 12 11 3 7 0 -0 5 4 8 8 3 7 10 4 7 11 6 7 7 6 8 6 7 7 5 6
9 9 9 8 7 7 7 7 7 9 9 9 10 9 9 9 9 10 9 10 10 10 11 11 12 12 12 12 13 13 8 8 10 8 8 9 8 7 8 8 5 4 7 7 5 5 4 5 6 5 6 7 9 8 11 9 2 6 7 7 8 6 15 11 -1 7 7 -6 -0 9 7 5 4 4 7 6 8 9 6 7 6 5 9 7 6 8 8 5
9 9 9 8 8 8 7 7 8 9 9 9 10 9 9 10 10 10 10 12 11 12 12 12 14 13 16 16 13 14 14 12 11 10 10 9 9 8 7 8 8 5 4 6 7 6 5 5 6 6 5 7 10 7 8 9 3 -0 5 11 7 5 14 12 -0 6 9 -3 2 13 8 5 7 5 6 8 9 8 6 6 5 5 8 9 6 6 8 5
10 9 9 8 8 8 7 8 8 9 10 10 9 10 10 10 10 11 11 11 11 12 12 13 15 15 19 19 15 18 18 16 13 12 12 10 9 10 8 8 9 8 5 4 6 7 7 7 7 7 7 9 8 7 10 12 10 2 3 13 5 -5 5 11 6 4 4 3 6 11 7 4 5 6 5 9 14 8 5 8 4 4 7 9 8 6 6 4
9 9 9 8 7 8 8 8 9 9 10 10 10 11 11 11 11 11 11 11 11 12 12 12 13 14 19 19 18 23 24 23 21 16 14 12 11 10 9 9 9 9 7 5 5 6 8 7 8 10 9 8 4 3 8 9 11 9 7 13 8 -1 2 7 7 2 0 3 6 6 5 4 2 4 6 10 16 9 5 8 5 4 5 7 10 8 6 4
9 9 8 8 8 8 8 9 9 10 10 10 11 11 11 12 11 11 11 11 11 11 10 11 12 14 17 18 20 24 27 27 25 22 18 15 14 12 10 10 10 11 9 7 6 5 8 7 8 11 8 8 8 6 5 2 4 8 8 10 10 6 3 5 8 6 5 4 3 3 5 6 3 2 6 8 13 11 7 6 5 4 3 4 8 8 8 7
9 8 8 8 7 7 8 9 9 10 11 11 12 12 12 12 11 12 11 11 11 10 10 10 11 10 11 16 18 20 23 26 27 25 22 21 17 14 15 13 11 13 11 8 7 6 8 7 5 7 7 9 11 8 5 3 4 5 5 10 12 10 7 5 7 9 11 8 3 2 5 7 4 1 3 4 9 14 10 8 7 4 2 4 7 7 8 8
8 8 8 7 7 9 8 9 11 10 11 12 12 12 12 12 12 12 11 11 11 9 9 9 8 8 9 11 10 14 18 21 26 26 25 26 22 17 17 15 13 13 12 10 8 7 7 7 6 4 3 4 6 10 12 5 3 5 6 11 10 6 7 5 3 6 7 7 7 5 4 5 4 3 4 2 4 11 11 9 8 4 2 4 6 7 6 7
8 8 8 7 8 8 8 10 11 10 12 12 11 12 13 13 13 13 11 11 12 12 11 11 11 10 9 8 5 7 12 14 18 22 25 26 25 21 18 17 17 15 14 11 10 10 7 7 7 7 7 6 3 8 15 6 -1 5 9 12 7 -1 3 5 3 7 8 9 12 10 5 5 5 5 5 1 1 7 10 10 7 4 4 4 4 6 6 6
7 8 8 8 8 8 10 11 10 11 12 11 11 13 13 14 14 13 11 12 13 12 11 13 15 14 14 14 10 6 6 8 11 14 19 22 23 23 19 18 19 16 15 12 10 10 9 8 7 7 8 12 13 10 15 14 0 -3 3 10 13 8 8 9 5 5 7 10 12 10 6 4 3 4 4 1 1 4 7 9 8 5 6 4 2 4 6 6
8 8 8 8 8 9 10 10 11 12 11 11 13 13 13 13 13 11 11 11 9 9 12 14 13 13 14 14 13 13 10 8 8 9 13 17 19 20 18 18 19 18 15 13 13 12 9 8 9 10 9 9 16 13 9 18 10 -10 -10 4 13 13 9 9 10 7 7 7 6 9 11 9 5 4 5 2 1 5 6 8 10 7 5 5 4 4 5 4
8 8 8 9 8 9 11 11 11 11 11 12 13 14 13 12 11 11 11 8 7 10 11 10 10 9 11 15 14 14 15 12 9 8 10 14 16 17 18 18 18 17 16 13 10 12 11 10 8 10 11 8 15 15 2 9 13 -10 -13 5 14 11 4 7 13 10 11 5 -2 10 22 18 9 8 11 5 1 8 9 6 9 9 5 5 6 5 4 5
8 8 9 8 8 10 11 11 11 11 12 12 13 14 11 10 9 9 9 8 13 18 10 6 10 9 11 17 16 14 17 17 14 11 10 10 13 17 16 17 19 17 17 17 14 13 10 12 13 10 12 10 11 16 5 4 8 -6 -13 -3 12 18 3 1 10 8 13 9 -4 9 24 21 13 12 16 9 1 9 11 5 6 9 6 4 5 5 4 6
8 9 9 8 9 10 10 11 11 12 11 13 14 11 9 9 8 9 11 13 17 11 3 8 12 11 13 15 16 16 16 15 14 15 16 14 13 16 15 15 18 17 14 12 12 15 12 11 13 12 15 13 13 19 12 6 1 -2 -3 -10 3 21 4 -3 9 6 9 10 2 9 15 17 14 10 17 17 6 5 6 4 5 6 8 5 3 6 5 4
8 9 8 9 9 9 11 11 11 12 12 14 12 8 9 8 7 12 12 17 17 -6 -11 10 13 7 12 13 14 16 14 17 18 17 19 18 13 14 19 19 15 19 27 20 14 18 20 18 14 16 18 10 12 21 16 4 -10 -7 6 -3 -1 12 2 0 9 9 11 9 6 11 13 12 9 6 18 25 13 3 6 11 8 2 4 9 5 5 7 6
8 9 9 10 9 9 11 10 12 13 13 13 10 7 9 8 11 13 10 17 16 -7 -8 12 9 4 12 13 14 18 16 17 19 21 20 16 16 16 18 23 16 11 17 10 10 21 20 18 13 11 22 23 14 15 12 1 1 10 -0 -12 4 8 -4 4 7 8 20 15 7 12 13 11 7 7 15 24 19 8 12 20 13 3 3 7 9 7 8 7
8 9 11 10 8 9 10 11 13 12 13 12 7 8 9 11 13 10 13 16 9 2 4 7 5 6 12 14 14 16 15 13 11 18 22 13 13 13 12 25 23 13 17 3 -2 16 15 15 11 -7 1 22 20 18 16 3 9 22 -6 -20 12 12 -4 9 8 6 19 18 13 14 12 9 8 8 6 18 29 17 16 20 9 8 10 4 6 8 8 7
9 10 12 11 8 9 9 12 13 12 13 9 7 10 9 13 13 9 13 7 -1 5 4 6 15 11 9 15 15 11 9 15 12 11 22 18 11 13 14 20 5 -6 18 20 3 12 17 20 27 12 2 14 20 17 18 15 8 1 -10 -4 15 12 9 15 6 7 21 17 12 12 13 11 6 4 -2 1 17 18 18 20 14 17 14 0 3 8 7 9
10 12 14 11 8 8 9 12 14 12 11 9 8 8 9 14 11 8 8 -2 2 13 6 7 13 13 19 15 7 11 15 22 17 3 10 17 16 17 15 20 16 -3 2 12 6 6 15 21 18 16 15 15 18 10 3 19 19 -6 -5 10 5 -1 8 10 -0 5 18 14 4 4 11 15 10 9 6 -4 -1 11 16 18 28 37 21 -6 -3 7 5 9
10 13 14 11 9 8 9 12 14 11 10 11 8 6 14 14 4 10 14 7 13 16 11 12 7 14 28 14 -1 11 27 27 13 3 9 12 14 17 10 14 28 24 16 25 21 2 8 22 8 5 17 7 1 11 14 22 19 -1 -3 6 7 3 -5 -3 9 6 3 9 7 4 4 5 7 10 14 7 -3 2 9 13 25 41 41 15 -3 5 4 4
12 15 14 12 10 7 8 12 13 13 11 10 7 7 14 8 0 8 5 5 10 2 2 9 5 11 15 14 12 5 12 13 -5 6 24 14 10 20 23 20 18 18 28 40 29 2 -2 8 4 8 19 11 -5 3 25 29 10 -4 -4 -5 5 19 0 -6 19 12 -3 5 6 8 14 9 7 7 9 14 8 1 -1 6 12 18 46 47 8 -1 8 4
12 15 14 12 11 7 8 11 13 14 11 9 7 8 13 10 11 10 -1 4 8 -2 4 1 2 26 19 9 13 -3 -1 9 1 16 26 11 11 15 13 17 18 11 12 19 18 11 4 -2 7 13 7 14 5 -15 2 26 9 -13 -4 4 2 15 10 -4 14 9 -4 19 18 2 13 13 5 3 2 6 12 11 -0 -0 7 2 33 65 25 -6 5 3
12 15 14 12 11 8 7 10 14 14 10 9 7 7 11 7 7 8 4 15 14 8 24 16 11 35 17 -5 11 11 6 13 13 14 10 7 18 19 7 3 14 12 -5 -1 18 24 9 -8 9 23 8 13 21 1 -3 21 24 -9 -18 6 11 16 12 -9 4 5 -12 21 30 -5 -2 11 4 1 3 4 7 15 10 3 9 2 17 61 45 4 1 2
13 15 13 13 12 8 6 10 14 12 10 11 7 7 9 2 4 5 -6 -2 8 6 14 21 22 18 -2 -8 8 12 4 6 8 1 3 11 9 15 17 -3 3 26 12 -1 11 20 12 -5 -3 9 3 7 28 34 10 1 28 26 -2 -1 11 20 16 -6 3 10 -8 10 21 2 4 9 4 5 5 4 5 11 13 7 13 11 7 25 29 13 9 13
14 15 13 14 12 8 8 9 11 11 12 12 7 6 6 6 12 15 1 -8 3 10 1 7 20 13 5 3 0 10 14 3 -4 -5 9 17 1 9 24 2 3 31 29 13 7 10 12 1 -2 8 10 11 25 43 32 0 1 21 17 6 11 17 9 2 7 3 -1 9 8 8 12 -2 -4 11 13 7 5 7 11 9 9 13 12 8 6 8 7 17
14 14 13 13 12 10 8 7 10 13 13 12 9 4 5 15 14 12 18 4 -3 20 15 -2 9 13 9 3 3 24 26 7 4 6 16 22 7 6 12 8 11 10 10 19 12 5 8 -2 -1 16 19 18 25 35 37 15 -9 3 13 3 19 27 -2 -3 15 5 4 6 -6 3 15 4 -2 6 14 12 4 2 5 11 9 4 14 18 8 8 4 11
12 14 13 13 12 11 8 8 11 12 14 11 7 4 5 15 9 0 15 8 -3 19 13 -3 18 23 8 7 16 18 4 6 16 7 15 28 17 9 -0 4 23 12 5 22 19 12 12 -1 -0 13 9 15 39 36 12 2 1 16 17 -5 16 40 6 -8 9 12 14 3 -9 6 13 9 8 3 11 15 7 3 0 5 13 6 12 21 12 12 12 5
11 14 12 11 12 12 10 10 10 11 14 9 7 11 9 10 9 2 6 5 6 19 8 4 19 5 -7 13 21 7 -3 9 13 3 15 17 7 14 4 -4 20 16 0 9 20 22 12 -7 -1 12 3 10 47 41 1 -3 5 4 7 1 11 33 27 11 1 2 11 -4 -11 10 11 5 6 0 7 16 12 13 7 1 7 8 8 12 8 9 15 13
11 13 12 12 14 13 9 9 11 10 11 9 8 12 11 7 10 8 6 4 8 13 8 12 17 -4 -2 20 13 -1 4 11 6 9 21 12 6 22 9 -9 6 10 0 2 14 28 18 -9 -9 6 1 5 40 40 -3 -5 10 -2 -5 3 3 10 22 25 12 3 6 -0 -6 2 6 12 16 10 10 14 12 15 16 10 5 5 3 0 1 4 10 16
10 13 12 13 14 11 10 10 13 9 8 11 7 8 15 13 8 6 5 5 7 12 12 14 19 10 7 15 6 -2 11 16 8 7 16 16 15 16 5 -3 3 11 19 16 8 18 22 -2 -17 -1 6 -2 20 40 10 -7 14 14 -2 -2 4 6 9 17 24 16 4 2 1 -7 -5 9 19 20 11 2 6 14 16 15 7 7 10 2 -1 3 5 11
9 13 12 14 11 10 14 12 12 10 8 11 9 9 16 12 4 3 4 6 5 12 17 11 13 10 -1 5 11 4 3 9 14 16 15 17 15 10 9 8 11 15 16 12 6 10 19 7 -13 -0 16 -4 -5 34 34 -4 -8 2 -6 1 16 6 -3 11 22 19 12 8 -3 -16 -7 7 10 16 13 0 5 14 13 13 7 3 10 11 10 8 6 8
8 13 12 12 10 12 16 11 12 11 3 12 21 16 12 10 6 -1 0 11 11 13 18 8 9 14 3 4 15 13 8 4 6 12 7 2 6 14 17 13 18 23 8 4 15 16 16 13 -2 0 13 0 -9 25 43 -0 -26 -11 -8 -1 11 -7 -10 16 17 7 15 19 7 -9 -4 6 1 6 14 6 6 13 13 14 10 4 5 10 12 9 5 5
9 10 7 11 13 14 13 9 14 12 5 18 25 10 11 25 22 5 0 6 3 8 12 -3 5 24 13 2 5 9 17 13 1 3 2 -2 -2 4 8 4 8 16 8 8 20 20 16 14 9 7 5 0 -4 16 45 24 -4 13 13 -3 2 -2 2 21 14 -1 1 9 15 11 10 13 1 -6 0 1 8 18 17 15 13 10 9 9 8 7 7 10
8 8 9 14 15 13 12 11 11 7 9 22 13 -9 -4 13 10 2 4 3 -4 7 14 -0 5 21 11 5 7 5 12 16 12 13 8 0 1 7 13 8 1 4 8 12 16 21 20 14 15 15 5 7 7 7 26 20 0 18 24 2 -1 3 3 3 -7 -11 -0 12 14 4 7 20 13 -1 -6 -6 4 10 10 17 16 10 12 14 13 14 14 11
7 10 11 11 16 19 16 12 8 7 15 23 7 -7 4 15 15 10 4 1 0 5 12 8 7 9 2 2 8 5 6 7 9 17 11 1 4 14 22 19 9 7 9 7 8 15 17 15 17 12 0 4 12 14 23 18 4 2 -0 4 14 1 -10 -6 -12 -16 1 24 20 -9 -11 9 13 8 2 -2 -1 -8 -9 10 17 10 11 14 14 12 9 5
6 11 10 7 14 20 16 12 12 11 13 13 1 -2 13 19 19 19 9 3 7 6 6 8 7 9 10 6 3 2 3 2 4 13 13 7 7 8 13 15 12 17 22 15 12 13 13 17 19 14 9 3 5 23 26 10 5 -8 -23 5 32 10 -5 9 8 -5 2 20 17 -3 -8 0 3 6 5 2 5 1 1 14 21 19 12 6 8 10 8 8
11 10 7 7 12 18 17 12 12 8 2 5 3 2 11 8 6 22 21 6 6 7 7 8 7 11 15 8 4 6 5 4 5 7 5 3 5 6 6 10 12 19 24 18 12 9 5 10 14 14 19 11 9 34 29 -6 -7 1 -10 6 26 14 5 8 2 -1 9 14 11 7 4 3 6 8 1 -4 1 13 19 11 6 17 18 8 6 7 8 11
11 6 6 12 15 16 13 5 10 17 9 4 3 2 10 8 4 20 23 11 7 3 1 6 6 9 13 7 4 8 11 13 9 6 7 6 8 8 6 10 15 15 18 18 16 11 6 11 13 10 12 5 6 26 19 -9 -3 13 3 -1 11 16 10 5 4 5 8 9 10 13 10 8 12 11 5 -2 -9 0 13 3 -8 1 10 15 14 9 9 11
10 11 14 19 16 11 11 9 11 17 13 6 4 10 24 22 11 18 24 23 25 12 3 11 11 7 11 9 7 10 15 19 15 11 15 13 10 11 8 8 11 9 12 21 23 18 15 19 22 20 16 10 10 13 -0 -13 -1 13 8 -0 3 6 1 7 17 10 3 6 6 3 2 8 16 12 11 7 -14 -18 -1 4 6 7 -1 4 12 11 13 14
14 15 11 11 12 5 7 12 8 8 16 17 2 -5 7 7 -3 5 10 6 13 11 4 9 8 3 7 8 9 10 9 10 11 13 16 12 11 14 9 7 11 9 9 18 26 23 16 15 20 24 22 14 17 24 15 4 4 9 12 10 4 1 0 9 15 7 2 6 4 -4 -8 2 15 11 13 17 2 -3 5 5 13 18 3 -2 5 9 12 11
13 13 5 8 13 7 9 15 8 9 23 28 12 -5 4 12 -1 -7 -4 -5 6 12 1 -2 4 6 10 9 6 8 10 10 9 11 13 11 13 17 16 12 11 8 7 12 21 24 20 14 14 20 22 14 14 22 23 22 20 15 13 7 -1 2 8 11 11 6 3 3 5 5 -3 -3 4 -3 -1 12 12 8 10 9 15 19 10 5 6 8 11 7
11 10 7 11 13 11 17 14 2 6 16 21 19 7 11 28 18 2 5 11 17 19 4 -3 4 7 7 9 7 5 9 9 7 8 9 8 10 15 20 21 13 6 6 8 13 20 22 18 13 15 21 20 17 14 14 19 22 16 11 7 5 9 12 10 6 5 7 5 1 4 3 0 1 -7 -11 -1 6 3 -0 -2 3 5 6 11 11 7 6 7
Height
5893 5892 5892 5892 5891 5891 5890 5890 5889 5889 5888 5888 5887 5887 5886 5886 5886 5886 5886 5886 5886 5886 5886 5886 5887 5887 5887 5888 5888 5889 5890 5891 5892 5892 5893 5894 5894 5894 5894 5895 5896 5897 5897 5899 5900 5901 5902 5903 5903 5904 5904 5905 5905 5905 5905 5905 5905 5906 5907 5908 5909 5909 5908 5909 5909 5907 5907 5906 5906 5907 5907 5907 5908 5909 5910 5911 5911 5911 5911 5912 5912 5912 5912 5911 5912 5912 5911 5911
5893 5892 5891 5891 5890 5890 5889 5889 5888 5888 5887 5887 5886 5885 5885 5885 5884 5884 5884 5884 5884 5884 5884 5885 5885 5885 5885 5886 5886 5887 5888 5889 5890 5890 5891 5892 5892 5893 5893 5893 5894 5895 5895 5897 5899 5900 5901 5902 5902 5903 5904 5904 5904 5904 5905 5905 5904 5904 5906 5908 5908 5908 5908 5909 5910 5909 5907 5907 5905 5905 5906 5907 5908 5908 5909 5910 5911 5911 5912 5912 5912 5912 5913 5912 5913 5913 5912 5912
5892 5892 5891 5890 5890 5889 5889 5888 5887 5887 5886 5885 5885 5884 5883 5883 5883 5882 5882 5882 5882 5882 5882 5882 5883 5883 5883 5884 5884 5885 5886 5886 5888 5888 5889 5890 5890 5891 5891 5891 5892 5893 5894 5895 5897 5898 5900 5901 5902 5902 5903 5903 5903 5903 5904 5904 5904 5904 5905 5907 5907 5907 5908 5907 5907 5906 5905 5905 5904 5903 5905 5906 5907 5908 5908 5910 5911 5912 5912 5912 5913 5913 5913 5913 5913 5913 5913 5913
5891 5891 5890 5889 5889 5888 5888 5887 5886 5885 5884 5884 5883 5882 5882 5881 5881 5880 5880 5880 5880 5880 5880 5880 5880 5881 5881 5882 5882 5883 5883 5884 5886 5886 5886 5888 5889 5889 5890 5890 5890 5892 5892 5893 5895 5897 5898 5900 5901 5901 5902 5902 5902 5902 5903 5903 5904 5905 5905 5907 5906 5906 5907 5906 5903 5903 5902 5901 5902 5902 5903 5905 5906 5907 5908 5910 5911 5912 5913 5913 5913 5914 5914 5914 5914 5914 5914 5914
5890 5890 5889 5888 5888 5887 5886 5886 5885 5884 5883 5882 5881 5880 5880 5879 5879 5878 5878 5878 5878 5877 5878 5878 5878 5878 5878 5879 5879 5880 5880 5882 5884 5883 5884 5886 5887 5888 5888 5888 5889 5890 5891 5892 5893 5895 5896 5898 5899 5900 5901 5901 5901 5901 5902 5902 5903 5905 5905 5905 5905 5905 5906 5905 5903 5902 5900 5900 5900 5900 5902 5904 5905 5907 5909 5910 5911 5912 5913 5913 5914 5915 5915 5915 5915 5915 5915 5915
5889 5888 5887 5887 5886 5885 5885 5884 5883 5882 5881 5880 5879 5878 5878 5877 5876 5876 5875 5875 5875 5875 5875 5875 5875 5875 5876 5876 5876 5877 5877 5879 5882 5881 5882 5884 5884 5885 5885 5886 5887 5887 5889 5890 5891 5893 5894 5896 5897 5898 5899 5899 5900 5900 5901 5900 5902 5904 5905 5904 5904 5904 5904 5905 5904 5902 5901 5900 5898 5898 5900 5903 5905 5907 5909 5910 5911 5912 5913 5914 5915 5915 5916 5916 5915 5916 5916 5916
5888 5887 5886 5885 5884 5883 5883 5882 5881 5880 5879 5878 5877 5876 5875 5875 5874 5873 5873 5873 5872 5872 5872 5872 5872 5872 5873 5873 5873 5874 5874 5877 5880 5879 5879 5881 5882 5883 5883 5883 5884 5885 5886 5887 5889 5890 5892 5893 5895 5896 5896 5897 5897 5899 5899 5898 5900 5903 5903 5903 5904 5904 5904 5905 5905 5903 5902 5899 5897 5898 5900 5902 5906 5908 5909 5910 5911 5913 5914 5915 5916 5916 5916 5917 5917 5917 5917 5917
5886 5885 5884 5883 5882 5882 5881 5880 5879 5878 5877 5876 5875 5874 5873 5872 5872 5871 5870 5870 5870 5869 5869 5869 5869 5869 5869 5870 5870 5870 5871 5875 5878 5877 5876 5877 5879 5880 5880 5881 5882 5883 5884 5885 5886 5888 5890 5891 5893 5893 5893 5895 5896 5897 5898 5897 5899 5902 5902 5903 5903 5904 5905 5905 5905 5904 5903 5900 5899 5900 5901 5904 5907 5908 5909 5910 5911 5913 5914 5915 5916 5917 5917 5918 5918 5918 5918 5918
5885 5884 5883 5882 5881 5880 5879 5877 5876 5875 5874 5873 5872 5871 5871 5870 5869 5868 5868 5867 5867 5866 5866 5866 5866 5866 5866 5866 5867 5867 5869 5872 5875 5874 5873 5874 5876 5877 5878 5879 5880 5881 5882 5883 5884 5886 5888 5889 5890 5891 5892 5894 5896 5896 5896 5896 5899 5901 5901 5902 5903 5904 5904 5905 5905 5905 5904 5903 5902 5903 5903 5905 5908 5908 5909 5910 5911 5913 5914 5915 5916 5917 5918 5918 5919 5919 5919 5919
5883 5882 5881 5880 5879 5878 5876 5875 5874 5873 5872 5871 5870 5869 5868 5867 5866 5865 5865 5864 5863 5863 5863 5862 5862 5862 5862 5863 5863 5865 5867 5869 5870 5870 5869 5870 5872 5873 5875 5876 5877 5878 5879 5880 5882 5883 5885 5886 5887 5890 5891 5892 5894 5893 5894 5896 5898 5899 5900 5901 5903 5903 5903 5904 5904 5905 5905 5904 5904 5904 5905 5906 5908 5909 5909 5910 5912 5913 5914 5915 5916 5917 5918 5919 5920 5920 5920 5920
5882 5881 5880 5878 5877 5876 5874 5873 5872 5871 5870 5868 5867 5866 5865 5864 5863 5862 5861 5861 5860 5859 5859 5859 5859 5858 5858 5859 5859 5862 5864 5863 5865 5866 5864 5866 5868 5869 5871 5873 5874 5875 5876 5877 5879 5881 5882 5883 5885 5888 5890 5891 5892 5891 5892 5896 5897 5897 5898 5900 5902 5902 5902 5904 5904 5905 5905 5905 5905 5905 5905 5907 5908 5909 5910 5910 5911 5913 5915 5916 5916 5918 5918 5919 5920 5921 5921 5921
5880 5879 5878 5877 5875 5874 5872 5871 5870 5869 5867 5866 5864 5863 5862 5861 5860 5859 5858 5857 5856 5856 5855 5855 5855 5855 5855 5855 5856 5859 5859 5856 5859 5861 5860 5861 5864 5865 5867 5869 5871 5872 5873 5874 5875 5877 5879 5880 5884 5886 5888 5889 5890 5889 5890 5894 5896 5896 5897 5899 5902 5902 5902 5903 5903 5904 5905 5905 5906 5906 5906 5907 5908 5909 5910 5910 5911 5913 5914 5915 5917 5918 5918 5919 5920 5921 5922 5922
5879 5878 5876 5875 5873 5872 5870 5869 5868 5866 5865 5863 5862 5860 5859 5858 5856 5855 5855 5854 5853 5852 5852 5851 5851 5851 5851 5851 5852 5853 5853 5852 5854 5857 5857 5857 5859 5862 5863 5865 5867 5869 5870 5871 5872 5874 5876 5878 5882 5884 5886 5888 5889 5889 5889 5892 5895 5896 5897 5898 5900 5901 5901 5902 5902 5903 5904 5905 5906 5907 5907 5908 5908 5909 5910 5910 5911 5913 5914 5915 5917 5918 5919 5919 5920 5921 5922 5922
5877 5876 5875 5873 5871 5870 5868 5867 5865 5864 5862 5861 5859 5858 5856 5855 5853 5852 5851 5850 5849 5848 5848 5847 5847 5847 5847 5847 5847 5848 5848 5849 5850 5852 5853 5854 5855 5857 5859 5861 5863 5865 5867 5868 5869 5871 5874 5876 5879 5882 5885 5887 5888 5888 5888 5890 5893 5895 5896 5897 5899 5899 5900 5901 5902 5903 5904 5905 5906 5906 5907 5908 5908 5909 5910 5910 5911 5913 5914 5915 5917 5918 5919 5919 5920 5921 5922 5923
5876 5874 5873 5871 5869 5868 5866 5865 5863 5861 5860 5858 5856 5855 5853 5852 5850 5849 5848 5847 5846 5845 5844 5843 5843 5843 5843 5843 5842 5843 5844 5845 5846 5847 5848 5850 5851 5853 5855 5857 5859 5862 5863 5865 5867 5869 5871 5874 5878 5881 5883 5884 5884 5885 5886 5889 5892 5894 5896 5897 5897 5898 5899 5900 5900 5902 5903 5904 5905 5906 5907 5908 5908 5909 5910 5910 5911 5913 5914 5915 5916 5917 5918 5919 5920 5921 5922 5923
5874 5872 5871 5869 5867 5866 5864 5863 5861 5859 5857 5856 5854 5852 5851 5849 5848 5846 5845 5844 5843 5842 5841 5840 5839 5839 5840 5839 5838 5839 5840 5840 5841 5841 5843 5845 5846 5848 5850 5853 5856 5858 5860 5862 5864 5866 5868 5872 5876 5878 5879 5880 5882 5883 5884 5887 5891 5894 5895 5896 5897 5897 5899 5899 5899 5900 5901 5902 5904 5905 5906 5908 5908 5909 5909 5910 5911 5912 5913 5915 5916 5917 5918 5919 5920 5921 5922 5922
5872 5871 5869 5867 5866 5864 5862 5860 5858 5857 5855 5853 5851 5850 5848 5846 5845 5844 5842 5841 5840 5839 5838 5838 5837 5837 5837 5837 5836 5836 5836 5836 5837 5837 5838 5840 5842 5845 5847 5849 5852 5854 5857 5859 5861 5864 5866 5869 5872 5873 5875 5878 5880 5881 5883 5886 5890 5892 5892 5894 5896 5897 5899 5899 5899 5899 5900 5901 5902 5904 5905 5907 5907 5908 5909 5910 5910 5912 5913 5915 5916 5917 5918 5919 5920 5921 5921 5922
5870 5869 5867 5865 5864 5862 5860 5858 5856 5854 5852 5851 5849 5847 5845 5844 5843 5841 5840 5839 5838 5837 5836 5836 5835 5835 5835 5835 5834 5834 5834 5834 5834 5834 5835 5837 5839 5842 5843 5845 5848 5851 5853 5856 5859 5861 5863 5865 5867 5869 5872 5875 5877 5880 5883 5886 5888 5890 5890 5891 5894 5897 5898 5898 5899 5899 5899 5900 5901 5902 5904 5905 5906 5907 5908 5909 5910 5911 5912 5914 5915 5916 5917 5918 5920 5921 5921 5922
5869 5867 5866 5864 5862 5860 5858 5856 5854 5852 5850 5848 5846 5845 5843 5842 5841 5840 5838 5837 5837 5836 5834 5834 5834 5833 5834 5834 5832 5833 5833 5832 5832 5832 5833 5834 5836 5838 5840 5842 5844 5847 5850 5852 5855 5857 5859 5862 5864 5866 5870 5873 5876 5880 5883 5884 5885 5887 5888 5889 5892 5895 5897 5897 5897 5897 5898 5899 5900 5901 5902 5903 5905 5906 5907 5908 5909 5910 5912 5913 5914 5915 5917 5918 5919 5920 5921 5922
5867 5866 5864 5862 5860 5858 5856 5854 5852 5850 5848 5846 5844 5843 5841 5840 5839 5838 5837 5836 5835 5834 5833 5832 5832 5831 5832 5832 5831 5831 5831 5831 5831 5831 5831 5832 5833 5835 5837 5839 5841 5844 5847 5849 5852 5854 5856 5859 5861 5864 5869 5872 5876 5879 5882 5882 5882 5885 5887 5889 5890 5891 5894 5896 5896 5896 5896 5898 5899 5899 5900 5902 5903 5905 5906 5907 5907 5909 5910 5912 5913 5915 5916 5917 5919 5920 5921 5921
5866 5864 5862 5861 5859 5857 5855 5852 5850 5848 5846 5844 5842 5841 5840 5839 5838 5837 5836 5834 5834 5833 5832 5831 5831 5830 5829 5830 5829 5829 5829 5829 5830 5830 5830 5830 5831 5833 5834 5836 5839 5842 5844 5847 5848 5850 5853 5856 5859 5863 5867 5871 5875 5877 5879 5881 5882 5883 5886 5887 5888 5888 5892 5895 5895 5895 5896 5897 5897 5898 5899 5900 5901 5903 5903 5904 5905 5907 5909 5911 5912 5914 5915 5916 5918 5919 5920 5921
5864 5862 5861 5859 5857 5855 5853 5851 5849 5846 5844 5842 5841 5839 5838 5837 5836 5836 5835 5834 5833 5832 5831 5830 5830 5829 5829 5828 5827 5827 5827 5828 5828 5828 5829 5829 5830 5831 5833 5834 5837 5839 5841 5843 5845 5847 5850 5853 5857 5861 5865 5868 5872 5874 5876 5878 5881 5881 5883 5886 5886 5887 5890 5893 5894 5894 5894 5896 5897 5897 5897 5897 5899 5900 5900 5901 5904 5907 5909 5910 5911 5912 5914 5915 5917 5918 5919 5920
5862 5861 5859 5857 5855 5853 5851 5849 5847 5845 5843 5841 5840 5838 5837 5836 5835 5835 5834 5833 5832 5831 5830 5829 5828 5828 5827 5827 5826 5825 5825 5826 5826 5827 5827 5828 5829 5830 5831 5833 5835 5837 5839 5842 5843 5845 5848 5852 5856 5859 5863 5866 5870 5872 5872 5875 5877 5879 5881 5884 5885 5885 5888 5890 5891 5892 5892 5893 5896 5896 5895 5895 5897 5898 5899 5901 5904 5906 5906 5907 5909 5911 5912 5914 5915 5916 5918 5919
5861 5859 5857 5855 5853 5851 5849 5847 5845 5843 5841 5840 5838 5837 5836 5835 5834 5833 5832 5831 5831 5830 5829 5828 5828 5827 5826 5825 5825 5824 5823 5824 5824 5825 5826 5827 5828 5829 5830 5831 5833 5835 5838 5840 5842 5844 5848 5851 5855 5858 5861 5865 5868 5870 5871 5872 5875 5878 5880 5882 5882 5883 5887 5888 5888 5890 5890 5891 5893 5894 5895 5895 5895 5897 5898 5901 5904 5905 5905 5906 5907 5909 5910 5913 5914 5915 5916 5918
5859 5857 5855 5853 5852 5850 5848 5846 5844 5842 5840 5839 5837 5836 5835 5834 5833 5831 5831 5830 5829 5829 5829 5828 5828 5827 5826 5824 5823 5823 5822 5822 5823 5824 5825 5826 5827 5828 5828 5830 5832 5834 5836 5839 5841 5843 5846 5849 5852 5856 5860 5863 5866 5868 5868 5869 5872 5876 5880 5882 5881 5882 5885 5886 5887 5889 5890 5890 5891 5892 5894 5894 5895 5895 5897 5900 5902 5903 5903 5904 5906 5907 5908 5911 5913 5914 5915 5916
5857 5855 5854 5852 5850 5848 5846 5845 5843 5841 5839 5838 5837 5836 5834 5832 5831 5830 5830 5829 5829 5828 5827 5827 5826 5825 5825 5824 5823 5822 5821 5822 5822 5823 5824 5825 5826 5826 5827 5829 5831 5833 5834 5836 5839 5841 5843 5847 5850 5854 5857 5861 5864 5865 5865 5868 5872 5876 5881 5883 5881 5881 5883 5884 5885 5887 5888 5889 5890 5891 5892 5893 5894 5894 5895 5898 5900 5900 5901 5902 5904 5905 5906 5909 5911 5913 5914 5915
5856 5854 5852 5850 5849 5847 5845 5843 5842 5840 5839 5838 5837 5835 5833 5832 5831 5830 5829 5828 5828 5827 5826 5826 5825 5823 5823 5823 5823 5822 5821 5821 5822 5823 5823 5824 5825 5825 5826 5828 5830 5832 5834 5835 5837 5840 5843 5847 5849 5851 5854 5857 5860 5862 5865 5868 5872 5876 5879 5881 5880 5879 5882 5883 5884 5885 5887 5888 5889 5890 5890 5891 5892 5894 5895 5896 5897 5898 5899 5901 5902 5903 5905 5907 5909 5911 5913 5914
5854 5852 5850 5849 5847 5846 5844 5843 5841 5840 5838 5837 5836 5834 5833 5832 5831 5830 5829 5828 5829 5828 5827 5827 5826 5824 5823 5823 5822 5821 5821 5821 5822 5823 5823 5823 5824 5825 5826 5827 5828 5831 5833 5835 5837 5840 5844 5847 5848 5850 5852 5855 5858 5862 5864 5866 5869 5873 5875 5877 5878 5878 5880 5881 5882 5883 5884 5886 5888 5888 5889 5890 5891 5893 5894 5895 5896 5897 5898 5899 5900 5901 5903 5904 5907 5909 5911 5913
5852 5851 5849 5848 5846 5845 5843 5842 5840 5839 5838 5836 5835 5834 5832 5831 5831 5830 5829 5828 5828 5828 5826 5826 5825 5824 5823 5822 5821 5821 5820 5821 5821 5822 5822 5822 5823 5824 5826 5827 5827 5829 5830 5833 5836 5839 5842 5844 5846 5848 5850 5854 5857 5860 5861 5863 5868 5871 5872 5874 5876 5878 5880 5881 5882 5882 5882 5884 5886 5887 5888 5890 5891 5892 5893 5894 5895 5896 5896 5897 5898 5899 5900 5902 5904 5907 5909 5911
5851 5849 5848 5846 5845 5844 5842 5841 5839 5838 5837 5836 5835 5834 5832 5831 5831 5830 5829 5829 5828 5827 5826 5824 5824 5824 5822 5821 5821 5821 5821 5820 5821 5822 5822 5822 5823 5824 5825 5826 5828 5829 5830 5832 5835 5837 5840 5842 5843 5844 5848 5851 5854 5855 5858 5863 5867 5868 5869 5872 5873 5875 5878 5879 5880 5881 5880 5882 5884 5886 5887 5889 5890 5891 5892 5893 5894 5894 5895 5895 5896 5896 5897 5899 5901 5905 5907 5909
5849 5848 5846 5845 5844 5842 5841 5839 5838 5837 5836 5835 5834 5833 5832 5832 5831 5829 5828 5829 5829 5828 5827 5824 5824 5824 5823 5822 5823 5824 5824 5822 5822 5822 5822 5822 5822 5823 5825 5826 5827 5828 5830 5832 5835 5836 5838 5840 5842 5843 5846 5850 5851 5853 5856 5861 5865 5866 5868 5869 5870 5872 5874 5876 5878 5879 5880 5882 5884 5886 5886 5887 5889 5890 5891 5892 5893 5893 5894 5894 5895 5895 5895 5896 5899 5903 5905 5908
5848 5846 5845 5844 5842 5841 5840 5838 5837 5836 5835 5835 5834 5833 5832 5832 5830 5829 5828 5829 5829 5829 5828 5826 5825 5825 5824 5825 5826 5826 5826 5825 5823 5823 5822 5822 5822 5823 5824 5825 5827 5828 5829 5831 5833 5835 5836 5839 5840 5841 5845 5849 5851 5852 5855 5859 5863 5866 5867 5868 5869 5871 5873 5876 5877 5879 5881 5884 5885 5886 5886 5885 5887 5890 5891 5891 5891 5892 5893 5894 5894 5894 5894 5894 5897 5901 5904 5906
5846 5845 5843 5842 5841 5839 5838 5837 5836 5835 5834 5834 5834 5833 5832 5831 5829 5829 5829 5829 5829 5828 5828 5827 5826 5825 5825 5826 5826 5826 5825 5825 5825 5823 5822 5822 5822 5823 5823 5825 5827 5828 5828 5830 5831 5833 5836 5838 5840 5841 5845 5848 5850 5851 5855 5859 5862 5863 5865 5866 5868 5870 5871 5874 5877 5879 5883 5884 5885 5886 5886 5885 5887 5889 5890 5891 5891 5891 5892 5893 5893 5894 5894 5893 5896 5900 5902 5904
5845 5843 5842 5841 5840 5838 5837 5836 5835 5834 5833 5833 5833 5832 5831 5830 5829 5830 5829 5827 5828 5828 5826 5826 5826 5826 5826 5826 5826 5826 5825 5825 5824 5823 5822 5823 5822 5822 5823 5824 5826 5827 5829 5830 5830 5831 5834 5837 5839 5840 5843 5846 5848 5851 5853 5857 5860 5862 5864 5865 5867 5869 5870 5873 5877 5880 5882 5883 5884 5885 5884 5885 5887 5888 5889 5889 5890 5891 5891 5892 5892 5893 5894 5895 5897 5900 5902 5903
5843 5842 5841 5839 5838 5837 5836 5835 5834 5833 5833 5832 5832 5831 5830 5829 5829 5829 5828 5827 5827 5827 5826 5826 5826 5826 5827 5827 5825 5826 5826 5824 5823 5823 5822 5823 5823 5822 5823 5824 5824 5826 5827 5828 5829 5830 5831 5834 5836 5838 5840 5843 5846 5849 5851 5854 5857 5860 5863 5863 5865 5869 5871 5873 5875 5877 5878 5879 5881 5882 5881 5883 5885 5886 5887 5888 5889 5889 5890 5891 5892 5893 5894 5895 5897 5899 5901 5902
5842 5840 5839 5838 5837 5835 5834 5834 5833 5833 5832 5831 5831 5830 5829 5829 5827 5827 5828 5827 5826 5827 5827 5826 5826 5826 5827 5828 5826 5825 5825 5824 5823 5823 5822 5822 5822 5822 5822 5823 5823 5824 5825 5825 5827 5829 5830 5832 5834 5836 5839 5841 5844 5847 5849 5852 5855 5858 5861 5863 5865 5869 5870 5870 5872 5874 5876 5878 5880 5880 5880 5882 5884 5884 5886 5887 5888 5888 5889 5890 5891 5892 5893 5894 5896 5897 5899 5900
5840 5839 5837 5836 5835 5834 5833 5833 5832 5832 5831 5830 5829 5828 5828 5827 5827 5827 5827 5827 5826 5826 5827 5826 5826 5826 5826 5827 5826 5824 5824 5823 5822 5822 5821 5822 5821 5821 5821 5821 5822 5823 5824 5824 5826 5827 5829 5832 5833 5835 5839 5841 5842 5845 5848 5851 5853 5856 5860 5862 5864 5867 5868 5867 5869 5871 5874 5877 5878 5879 5880 5881 5882 5882 5884 5886 5887 5887 5888 5890 5891 5892 5893 5893 5895 5896 5898 5899
5839 5837 5836 5835 5834 5833 5832 5831 5831 5830 5830 5829 5828 5827 5827 5826 5826 5826 5827 5826 5826 5825 5825 5825 5826 5826 5826 5826 5825 5824 5823 5822 5821 5821 5821 5821 5820 5820 5821 5820 5821 5822 5823 5824 5825 5825 5828 5831 5831 5832 5836 5838 5840 5844 5847 5849 5850 5852 5856 5859 5861 5863 5866 5867 5868 5870 5872 5874 5876 5876 5877 5878 5878 5880 5882 5884 5885 5886 5887 5889 5891 5892 5892 5893 5894 5895 5896 5898
5837 5836 5834 5833 5832 5831 5830 5830 5829 5829 5828 5827 5827 5827 5827 5826 5825 5826 5826 5825 5825 5824 5823 5823 5824 5825 5824 5824 5824 5823 5822 5821 5820 5819 5820 5820 5819 5819 5820 5820 5820 5821 5821 5823 5823 5823 5826 5828 5828 5828 5830 5833 5837 5842 5845 5847 5848 5850 5852 5855 5857 5860 5863 5866 5868 5870 5871 5873 5874 5874 5873 5874 5875 5877 5880 5881 5883 5884 5885 5887 5889 5890 5891 5892 5893 5894 5896 5897
5836 5834 5833 5831 5830 5829 5829 5828 5827 5827 5826 5825 5825 5825 5825 5825 5824 5824 5825 5824 5824 5823 5822 5822 5822 5822 5822 5823 5823 5822 5821 5821 5820 5819 5819 5819 5819 5818 5819 5819 5821 5821 5822 5822 5822 5822 5824 5826 5827 5828 5829 5830 5833 5836 5840 5843 5847 5851 5852 5853 5856 5859 5862 5864 5867 5868 5870 5870 5871 5871 5871 5871 5872 5874 5876 5879 5881 5881 5882 5883 5885 5888 5889 5891 5892 5894 5895 5896
5834 5833 5832 5830 5829 5828 5827 5826 5825 5825 5825 5824 5824 5823 5823 5824 5823 5823 5823 5823 5823 5822 5822 5821 5821 5821 5821 5821 5820 5820 5820 5820 5820 5819 5818 5818 5818 5817 5818 5818 5820 5821 5821 5821 5821 5823 5824 5825 5826 5827 5828 5828 5828 5831 5836 5840 5844 5847 5850 5854 5856 5859 5861 5863 5865 5866 5868 5869 5869 5869 5869 5869 5870 5871 5873 5876 5878 5879 5880 5881 5882 5884 5886 5889 5890 5892 5893 5894
5831 5831 5830 5829 5827 5826 5825 5824 5823 5823 5823 5823 5823 5823 5822 5822 5822 5822 5822 5822 5821 5821 5821 5821 5820 5820 5820 5819 5819 5818 5818 5819 5819 5819 5818 5818 5817 5817 5817 5818 5818 5819 5818 5818 5821 5822 5822 5823 5824 5825 5826 5827 5828 5832 5836 5840 5841 5843 5847 5852 5856 5858 5859 5862 5864 5865 5866 5868 5869 5868 5867 5867 5869 5869 5871 5874 5876 5877 5878 5880 5881 5881 5883 5886 5887 5889 5890 5890
5828 5828 5827 5826 5825 5824 5823 5822 5822 5821 5820 5820 5821 5821 5820 5820 5821 5820 5820 5820 5820 5819 5820 5819 5818 5818 5818 5818 5817 5817 5816 5816 5817 5817 5816 5816 5815 5815 5816 5817 5816 5816 5816 5817 5818 5820 5820 5821 5823 5825 5826 5826 5828 5830 5833 5837 5839 5841 5844 5849 5854 5855 5856 5859 5861 5863 5864 5865 5866 5865 5864 5865 5867 5868 5870 5873 5874 5875 5876 5879 5880 5879 5880 5882 5883 5885 5886 5886
5825 5825 5825 5823 5823 5822 5821 5820 5820 5820 5819 5818 5820 5820 5819 5819 5819 5818 5819 5819 5818 5818 5819 5818 5817 5817 5817 5816 5816 5816 5816 5815 5815 5815 5815 5814 5814 5814 5815 5815 5814 5814 5816 5816 5817 5818 5819 5820 5822 5824 5825 5826 5828 5830 5832 5834 5837 5841 5844 5848 5851 5852 5854 5856 5857 5859 5859 5858 5859 5860 5860 5862 5865 5866 5869 5871 5872 5873 5874 5876 5878 5878 5878 5880 5881 5883 5884 5887
5822 5822 5822 5822 5821 5820 5819 5818 5817 5818 5817 5818 5819 5819 5817 5817 5817 5817 5818 5817 5817 5818 5817 5817 5817 5816 5815 5816 5815 5815 5815 5814 5814 5814 5814 5813 5813 5813 5813 5813 5813 5813 5814 5815 5815 5816 5817 5817 5819 5822 5824 5825 5827 5829 5831 5833 5836 5840 5841 5842 5844 5846 5847 5849 5851 5854 5854 5852 5854 5857 5857 5859 5862 5864 5866 5868 5871 5872 5873 5874 5876 5876 5877 5878 5881 5883 5884 5886
5819 5819 5819 5819 5818 5817 5816 5815 5815 5816 5815 5815 5817 5816 5815 5815 5814 5815 5816 5815 5816 5817 5816 5815 5815 5815 5814 5814 5814 5814 5813 5813 5812 5813 5812 5812 5812 5812 5812 5812 5812 5812 5814 5814 5814 5814 5814 5815 5817 5819 5821 5824 5825 5827 5829 5831 5833 5834 5833 5832 5836 5840 5843 5846 5849 5851 5851 5850 5851 5853 5853 5855 5858 5861 5863 5866 5868 5870 5871 5871 5873 5874 5875 5876 5878 5880 5881 5882
5817 5816 5814 5814 5815 5815 5814 5813 5814 5814 5813 5813 5814 5814 5814 5813 5812 5813 5814 5813 5814 5815 5814 5814 5813 5813 5814 5813 5812 5813 5812 5811 5811 5811 5811 5811 5811 5810 5811 5811 5811 5811 5812 5812 5812 5811 5811 5812 5814 5816 5818 5820 5822 5824 5826 5827 5828 5830 5829 5829 5833 5838 5841 5844 5846 5844 5844 5845 5846 5847 5849 5851 5854 5857 5861 5864 5866 5868 5868 5868 5869 5871 5873 5874 5875 5876 5876 5878
5814 5812 5811 5812 5813 5812 5812 5811 5812 5813 5812 5812 5812 5811 5812 5813 5812 5812 5811 5810 5812 5813 5812 5812 5812 5812 5812 5811 5811 5811 5811 5810 5810 5810 5810 5809 5809 5809 5809 5809 5809 5809 5810 5809 5809 5809 5809 5810 5811 5812 5814 5815 5818 5821 5823 5824 5826 5827 5827 5828 5830 5834 5837 5838 5839 5839 5840 5841 5842 5844 5846 5846 5850 5855 5860 5863 5864 5864 5865 5867 5867 5868 5870 5872 5873 5873 5873 5874
5811 5810 5810 5811 5810 5810 5810 5808 5808 5811 5811 5811 5810 5809 5810 5812 5811 5811 5810 5808 5809 5810 5810 5811 5811 5810 5810 5809 5809 5809 5809 5809 5809 5808 5808 5807 5807 5808 5808 5808 5808 5808 5808 5807 5807 5807 5808 5809 5809 5810 5812 5813 5814 5818 5821 5822 5824 5825 5825 5825 5826 5829 5830 5831 5834 5837 5839 5839 5839 5842 5843 5843 5847 5853 5857 5860 5861 5860 5862 5865 5865 5865 5868 5871 5873 5873 5872 5872
5808 5808 5807 5808 5807 5807 5807 5806 5806 5808 5809 5808 5807 5807 5808 5810 5810 5810 5808 5807 5807 5807 5808 5809 5809 5808 5808 5808 5808 5808 5808 5808 5807 5807 5807 5806 5806 5806 5807 5807 5806 5806 5806 5805 5805 5806 5806 5807 5807 5807 5809 5811 5812 5815 5818 5819 5821 5822 5822 5822 5823 5824 5825 5827 5831 5834 5836 5837 5838 5839 5840 5842 5846 5849 5851 5854 5856 5857 5859 5861 5861 5862 5865 5867 5870 5872 5872 5871
5805 5804 5804 5804 5805 5805 5805 5805 5805 5805 5805 5806 5806 5805 5806 5807 5807 5806 5805 5805 5805 5806 5806 5806 5806 5807 5807 5807 5807 5807 5807 5807 5807 5806 5806 5806 5805 5805 5805 5805 5805 5805 5804 5803 5803 5804 5804 5804 5805 5806 5807 5808 5810 5813 5815 5816 5818 5819 5819 5821 5822 5822 5823 5825 5828 5830 5833 5835 5836 5837 5838 5840 5843 5845 5845 5848 5851 5854 5857 5858 5859 5860 5861 5863 5866 5868 5870 5871
5801 5801 5800 5801 5802 5803 5803 5803 5802 5803 5803 5804 5805 5804 5804 5805 5805 5803 5802 5802 5803 5804 5803 5803 5805 5805 5805 5805 5806 5806 5806 5806 5806 5805 5805 5805 5805 5804 5804 5804 5804 5803 5803 5802 5802 5802 5802 5803 5804 5804 5806 5807 5808 5810 5812 5814 5815 5817 5819 5821 5822 5821 5821 5824 5826 5828 5830 5832 5834 5835 5835 5837 5840 5842 5843 5844 5846 5850 5853 5856 5858 5859 5859 5860 5862 5863 5865 5867